Total_Precipitation_Accumulation
0.00 0.00 0.03 0.05 0.08 0.10 0.08 0.09 0.12 0.13 0.13 0.12 0.11 0.12 0.08 0.06 0.05 0.06 0.09 0.11 0.17 0.21 0.26 0.34 0.39 0.43 0.54 0.62 0.70 0.83 0.94 1.02 1.00 0.66 0.54 0.45 0.34 0.25 0.16 0.13 0.09 0.06 0.05
0.00 0.00 0.01 0.03 0.04 0.06 0.06 0.04 0.04 0.04 0.03 0.02 0.02 0.02 0.01 0.01 0.01 0.02 0.04 0.05 0.08 0.09 0.13 0.22 0.29 0.36 0.45 0.49 0.54 0.55 0.55 0.54 0.60 0.42 0.24 0.22 0.17 0.15 0.12 0.13 0.12 0.13 0.14
0.00 0.00 0.00 0.00 0.00 0.01 0.01 0.02 0.03 0.03 0.01 0.01 0.01 0.01 0.00 0.00 0.00 0.00 0.02 0.04 0.06 0.09 0.13 0.19 0.20 0.24 0.31 0.30 0.30 0.31 0.32 0.37 0.40 0.45 0.25 0.16 0.11 0.12 0.16 0.20 0.20 0.19 0.18
0.01 0.01 0.01 0.02 0.02 0.01 0.01 0.01 0.02 0.02 0.02 0.01 0.01 0.01 0.00 0.00 0.01 0.02 0.04 0.07 0.09 0.09 0.10 0.13 0.19 0.23 0.24 0.21 0.21 0.25 0.29 0.37 0.38 0.36 0.41 0.29 0.22 0.19 0.26 0.28 0.25 0.26 0.29
0.03 0.03 0.04 0.03 0.02 0.02 0.02 0.01 0.01 0.02 0.01 0.01 0.02 0.02 0.02 0.02 0.05 0.07 0.08 0.12 0.16 0.19 0.22 0.26 0.27 0.27 0.23 0.20 0.21 0.21 0.34 0.41 0.56 0.74 0.66 0.60 0.56 0.44 0.39 0.40 0.46 0.38 0.32
0.06 0.05 0.03 0.03 0.02 0.02 0.02 0.01 0.01 0.02 0.03 0.07 0.10 0.13 0.14 0.17 0.30 0.26 0.24 0.26 0.30 0.33 0.34 0.31 0.29 0.26 0.19 0.16 0.17 0.21 0.35 0.65 0.85 0.93 0.94 0.72 0.45 0.41 0.38 0.45 0.59 0.71 0.63
0.12 0.07 0.05 0.05 0.10 0.09 0.10 0.07 0.06 0.06 0.08 0.13 0.22 0.35 0.54 0.70 0.79 0.74 0.66 0.64 0.65 0.52 0.33 0.23 0.15 0.09 0.07 0.05 0.09 0.16 0.33 0.61 0.70 0.59 0.51 0.43 0.40 0.36 0.53 0.66 0.66 0.76 0.64
0.19 0.24 0.16 0.18 0.31 0.55 0.45 0.42 0.39 0.31 0.24 0.27 0.30 0.32 0.41 0.46 0.42 0.31 0.25 0.18 0.13 0.09 0.05 0.02 0.02 0.03 0.04 0.06 0.14 0.39 0.35 0.21 0.20 0.26 0.33 0.36 0.46 0.57 0.82 1.12 1.09 0.99 0.69
0.08 0.11 0.15 0.44 0.54 0.49 0.31 0.49 0.48 0.39 0.44 0.48 0.46 0.37 0.30 0.22 0.16 0.11 0.08 0.06 0.05 0.04 0.02 0.02 0.05 0.03 0.04 0.14 0.37 0.41 0.19 0.13 0.19 0.27 0.39 0.45 0.43 0.38 0.41 0.77 0.90 0.83 0.72
0.09 0.07 0.28 0.70 0.56 0.45 0.23 0.40 0.50 0.39 0.30 0.30 0.29 0.20 0.14 0.08 0.07 0.05 0.04 0.05 0.03 0.02 0.02 0.03 0.04 0.04 0.11 0.37 0.27 0.24 0.26 0.17 0.33 0.34 0.35 0.39 0.39 0.38 0.44 0.50 0.95 1.63 1.14
0.27 0.22 0.43 0.48 0.47 0.37 0.28 0.30 0.28 0.26 0.16 0.12 0.13 0.08 0.04 0.03 0.02 0.01 0.01 0.02 0.03 0.14 0.11 0.03 0.03 0.15 0.35 0.21 0.16 0.19 0.22 0.27 0.33 0.30 0.32 0.37 0.39 0.40 0.45 0.61 0.98 1.82 2.07
0.41 0.36 0.32 0.26 0.25 0.26 0.12 0.09 0.06 0.03 0.02 0.02 0.02 0.01 0.00 0.00 0.00 0.01 0.01 0.03 0.07 0.10 0.05 0.02 0.10 0.23 0.09 0.05 0.09 0.18 0.32 0.31 0.24 0.33 0.47 0.52 0.51 0.52 0.59 0.66 0.72 0.85 1.04
0.22 0.17 0.13 0.12 0.10 0.07 0.03 0.03 0.02 0.01 0.01 0.01 0.01 0.00 0.00 0.00 0.00 0.01 0.01 0.07 0.09 0.07 0.05 0.16 0.15 0.03 0.03 0.04 0.10 0.17 0.16 0.15 0.35 0.66 0.81 0.82 0.75 0.80 0.84 0.76 0.68 0.64 0.69
0.06 0.06 0.04 0.03 0.03 0.01 0.00 0.00 0.00 0.00 0.00 0.01 0.01 0.01 0.01 0.00 0.00 0.00 0.03 0.05 0.04 0.08 0.17 0.14 0.02 0.03 0.05 0.06 0.08 0.07 0.07 0.17 0.42 0.62 0.68 0.61 0.70 0.74 0.73 0.84 1.07 0.97 1.04
0.02 0.01 0.01 0.01 0.03 0.01 0.01 0.01 0.01 0.01 0.02 0.01 0.00 0.01 0.02 0.02 0.01 0.05 0.06 0.05 0.09 0.16 0.07 0.01 0.01 0.02 0.02 0.02 0.04 0.06 0.11 0.24 0.41 0.41 0.57 0.62 0.72 0.81 0.83 0.94 1.22 1.17 1.03
0.01 0.01 0.01 0.01 0.01 0.01 0.01 0.02 0.04 0.02 0.02 0.01 0.01 0.02 0.02 0.03 0.04 0.05 0.05 0.12 0.16 0.07 0.05 0.03 0.04 0.05 0.08 0.09 0.11 0.15 0.20 0.32 0.39 0.55 0.62 0.69 0.85 0.93 1.11 1.22 1.24 1.05 0.86
0.00 0.00 0.00 0.01 0.00 0.00 0.01 0.01 0.01 0.02 0.02 0.01 0.01 0.01 0.02 0.03 0.02 0.03 0.10 0.13 0.03 0.06 0.08 0.12 0.15 0.16 0.16 0.16 0.22 0.36 0.48 0.53 0.77 0.91 0.93 0.94 1.01 1.09 1.15 1.16 0.95 0.72 0.52
0.00 0.01 0.00 0.00 0.00 0.00 0.01 0.01 0.01 0.01 0.01 0.01 0.02 0.03 0.02 0.02 0.03 0.05 0.08 0.03 0.02 0.11 0.20 0.25 0.28 0.25 0.24 0.31 0.38 0.57 0.71 0.74 0.78 0.87 1.02 1.08 1.22 1.39 1.24 1.05 0.74 0.56 0.41
0.00 0.00 0.00 0.00 0.00 0.00 0.01 0.01 0.01 0.01 0.01 0.00 0.01 0.03 0.02 0.03 0.07 0.07 0.03 0.01 0.04 0.13 0.21 0.28 0.35 0.34 0.35 0.43 0.49 0.62 0.78 1.03 1.26 1.37 1.19 1.29 1.30 1.36 0.96 0.62 0.43 0.22 0.25
0.00 0.00 0.00 0.00 0.00 0.00 0.01 0.01 0.02 0.02 0.03 0.04 0.03 0.02 0.04 0.11 0.11 0.02 0.01 0.02 0.05 0.07 0.10 0.19 0.25 0.32 0.33 0.42 0.57 0.82 1.04 1.09 1.16 1.15 1.25 1.26 1.10 0.92 0.72 0.41 0.22 0.29 0.18
0.00 0.00 0.01 0.00 0.00 0.01 0.02 0.03 0.04 0.06 0.07 0.06 0.03 0.06 0.16 0.14 0.05 0.02 0.03 0.03 0.04 0.06 0.11 0.16 0.23 0.32 0.38 0.47 0.65 0.84 1.09 1.15 1.18 1.31 1.19 0.96 0.77 0.56 0.25 0.23 0.22 0.21 0.29
0.00 0.00 0.00 0.00 0.02 0.03 0.03 0.04 0.04 0.05 0.07 0.07 0.06 0.08 0.15 0.09 0.02 0.03 0.05 0.04 0.04 0.05 0.08 0.13 0.18 0.28 0.48 0.82 1.11 1.18 1.10 1.09 1.09 1.19 0.97 0.61 0.40 0.23 0.21 0.26 0.27 0.27 0.26
0.01 0.01 0.00 0.01 0.05 0.10 0.12 0.07 0.10 0.12 0.10 0.10 0.11 0.11 0.11 0.09 0.04 0.03 0.04 0.04 0.07 0.07 0.05 0.09 0.18 0.26 0.32 0.67 1.13 1.59 1.70 1.30 1.24 1.04 0.83 0.59 0.46 0.52 0.52 0.45 0.32 0.25 0.19
0.03 0.03 0.03 0.03 0.07 0.15 0.13 0.13 0.13 0.17 0.18 0.15 0.13 0.13 0.11 0.10 0.08 0.05 0.04 0.04 0.07 0.07 0.07 0.09 0.17 0.32 0.44 0.74 1.05 1.30 1.54 1.59 1.43 1.28 1.36 1.15 0.72 0.45 0.35 0.29 0.22 0.20 0.18
0.06 0.06 0.07 0.07 0.11 0.14 0.17 0.19 0.18 0.15 0.17 0.18 0.16 0.15 0.12 0.13 0.11 0.07 0.06 0.07 0.07 0.07 0.05 0.09 0.20 0.38 0.54 0.87 1.11 1.26 1.29 1.21 1.10 0.93 0.68 0.54 0.44 0.36 0.35 0.33 0.22 0.17 0.13
0.13 0.11 0.11 0.13 0.16 0.17 0.19 0.18 0.17 0.16 0.17 0.16 0.16 0.16 0.14 0.14 0.11 0.10 0.10 0.12 0.11 0.07 0.05 0.08 0.17 0.33 0.57 0.85 1.09 1.26 1.24 1.04 0.75 0.46 0.30 0.37 0.37 0.28 0.25 0.28 0.21 0.18 0.15